Flag for Slovakia Weather past 2 weeks in Bratislava, Slovakia

Now
30 °F

Ice fog.


Feels Like: 20 °F
Forecast: 26 / 37 °F
Wind: 13 mph from Southeast

Location: Bratislava Ivanka

Current Time: Jan 29, 2015 at 11:46:24 PM

Latest Report: Jan 29, 2015 at 11:00 PM


Visibility: 3 mi

Pressure: 29.27 "Hg

Humidity: 93%

Dew point: 28 °F

Location of BratislavaLocation

Historic Weather in Bratislava — Graph

°F

Bratislava temperature yesterday

Maximum temperature yesterday: 41 °F (at 12:30 PM)
Minimum temperature yesterday: 30 °F (at 8:30 AM)
Average temperature yesterday: 36 °F

Past Weeks' High & Low Weather Summary

 TemperatureHumidityPressure
High50 °F (Jan 16, 1:00 PM)100% (Jan 20, 11:00 AM)30.30 "Hg (Jan 20, 11:00 AM)
Low23 °F (Jan 27, 3:00 AM)53% (Jan 15, 1:00 PM)29.27 "Hg (Jan 29, 11:00 PM)
Average37 °F81%29.97 "Hg
* Reported Jan 14 11:00 PM — Jan 29 11:00 PM, Bratislava, Weather by CustomWeather, © 2014

Note: Actual official high and low records may vary slightly from our data, if they occured in-between our weather recording intervals... More about our weather records

Advertising

Bratislava weather history for previous 24 hours

 ConditionsComfort  
Time TempWeatherWind HumidityBarometerVisibility
11:00 PM
Jan 29
30 °FIce fog.13 mph93%29.27 "Hg2 mi
10:30 PM30 °FIce fog.13 mph93%29.30 "Hg2 mi
10:00 PM30 °FIce fog.12 mph93%29.30 "Hg1 mi
9:30 PM30 °FIce fog.10 mph93%29.33 "Hg1 mi
9:00 PM32 °FIce fog.8 mph93%29.36 "Hg2 mi
8:30 PM32 °FIce fog.8 mph93%29.36 "Hg2 mi
8:00 PM32 °FIce fog.8 mph93%29.39 "Hg2 mi
7:30 PM32 °FIce fog.7 mph93%29.42 "Hg3 mi
7:00 PM32 °FIce fog.7 mph93%29.42 "Hg3 mi
6:30 PM32 °FIce fog.6 mph93%29.42 "Hg2 mi
6:00 PM32 °FIce fog.5 mph93%29.45 "Hg2 mi
5:30 PM32 °FIce fog.7 mph93%29.45 "Hg2 mi
5:00 PM32 °FIce fog.6 mph93%29.45 "Hg1 mi
4:30 PM32 °FIce fog.6 mph93%29.45 "Hg2 mi
4:00 PM32 °FIce fog.5 mph93%29.47 "Hg2 mi
3:30 PM32 °FIce fog.5 mph93%29.47 "Hg2 mi
3:00 PM32 °FIce fog.3 mph93%29.50 "Hg2 mi
2:30 PM32 °FIce fog.6 mph93%29.50 "Hg3 mi
2:00 PM32 °FIce fog.3 mph93%29.50 "Hg3 mi
1:30 PM34 °FLight snow. Fog.6 mph87%29.50 "Hg3 mi
1:00 PM34 °FLight snow. Fog.5 mph87%29.53 "Hg3 mi
12:30 PM34 °FLight snow. Mostly cloudy.3 mph87%29.53 "Hg1 mi
12:00 PM34 °FLight snow. More clouds than sun.2 mph87%29.56 "Hg3 mi
11:30 AM34 °FMostly cloudy.2 mph87%29.56 "Hg4 mi
11:00 AM34 °FMostly cloudy.2 mph87%29.56 "Hg4 mi
10:30 AM34 °FMore clouds than sun.1 mph87%29.56 "Hg4 mi
10:00 AM32 °FIce fog.3 mph93%29.56 "Hg3 mi
9:30 AM32 °FMore clouds than sun.1 mph93%29.56 "Hg4 mi
9:00 AM32 °FCloudy.1 mph93%29.56 "Hg4 mi
8:30 AM32 °FPartly sunny.2 mph93%29.56 "Hg4 mi
8:00 AM32 °FLight snow. Ice fog.3 mph93%29.56 "Hg2 mi
7:30 AM32 °FSnow. Ice fog.5 mph87%29.56 "Hg1 mi
7:00 AM32 °FSnow. Ice fog.5 mph87%29.56 "Hg1 mi
6:30 AM32 °FSnow. Partly cloudy.6 mph87%29.56 "Hg2 mi
6:00 AM32 °FSnow. Overcast.8 mph87%29.59 "Hg1 mi
5:30 AM32 °FLight snow. Overcast.7 mph87%29.59 "Hg2 mi
5:00 AM34 °FLight snow. Overcast.6 mph75%29.59 "Hg2 mi
4:30 AM34 °FClear.10 mph75%29.59 "Hg10 mi
4:00 AM34 °FPassing clouds.9 mph75%29.59 "HgN/A
3:30 AM34 °FClear.12 mph75%29.62 "Hg10 mi
3:00 AM34 °FClear.14 mph75%29.62 "Hg10 mi
2:30 AM34 °FPassing clouds.10 mph75%29.65 "HgN/A
2:00 AM34 °FClear.12 mph75%29.65 "Hg10 mi
1:30 AM34 °FClear.16 mph75%29.68 "Hg10 mi
1:00 AM34 °FClear.15 mph75%29.71 "Hg10 mi
12:30 AM34 °FClear.16 mph75%29.74 "Hg10 mi
12:00 AM34 °FClear.15 mph81%29.74 "Hg10 mi
11:30 PM
Jan 28
34 °FClear.15 mph81%29.74 "Hg10 mi
11:00 PM34 °FClear.13 mph75%29.77 "Hg10 mi
Weather by CustomWeather, © 2014

See weather overviewHow to use our weather pages